Starlink 31266

operational
NORAD ID: 59087 Int'l Des: 2024-041 Owner: SPXS Country: US Constellation: starlink
LEOCIRCULAR

About Starlink 31266

Description loading...

Live Position

Loading 3D Globe...

Upcoming Passes

Altitude History

Altitude vs Time

uPlot chart will show altitude changes over time

Two-Line Element Set

1 59087U 24041P 25302.39536419 -.00002005 00000-0 -63347-4 0 9998
2 59087 43.0031 332.0208 0001302 291.1336 68.9377 15.27585499 94245
Epoch: Oct 29, 2025 • Age: 32 hours

Current Status

Altitude 486.6 km
Velocity 7.63 km/s
Sub-Earth Point 41.06°N, 136.91°E
Launch Date Feb 29, 2024
Age 1.6 years
Type internet

Technical Details

Classification Payload
Mass 730.00 kg
Dry Mass 700.00 kg
Total Mass 730.00 kg
Length 0.30 m
Diameter 4.10 m
Span 29.00 m
Shape Box + pan
Manufacturer SPXS
Bus Type Starlink V2M
Phase Status In Orbit
Owner/State SPXS/US

Large Constellations

Loading constellations...